Hourly Data Report for October 20, 2016

All times are specified in Local Standard Time (LST). Add 1 hour to adjust for Daylight Saving Time where and when it is observed.

GRISE FIORD CLIMATE
NUNAVUT

76°25'22.040" N
82°54'08.020" W
44.50 m
2402351
71971
NGC

Download Data

Hourly Data (October 2016)
Hourly Data Report for October 20, 2016
Temp Definition
°C
Dew Point Temp Definition
°C
Rel Hum Definition
%
Wind Dir Definition
10's deg

Wind Spd Definition
km/h
Visibility Definition
km
Stn Press Definition
kPa
Hmdx Definition


Wind Chill Definition


Weather Definition


TIME
00:00 -14.0 -18.9 66 7 9   100.37   -20 LegendNANA
01:00 -15.8 -20.6 67 5 7   100.35   -21 LegendNANA
02:00 -15.2 -18.8 74 5 4   100.32   -18 LegendNANA
03:00 -12.9 -17.1 71 10 6   100.31   -17 LegendNANA
04:00 -14.7 -19.8 65 29 7   100.30   -19 LegendNANA
05:00 -15.1 -20.0 66 7 6   100.29   -19 LegendNANA
06:00 -15.0 -19.7 67 8 9   100.28   -21 LegendNANA
07:00 -15.8 -20.9 65 7 9   100.27   -22 LegendNANA
08:00 -15.4 -20.0 68 7 14   100.25   -23 LegendNANA
09:00 -15.5 -20.6 65 10 4   100.24   -18 LegendNANA
10:00 -15.3 -20.1 67 7 12   100.22   -22 LegendNANA
11:00 -15.7 -21.6 61 7 5   100.21   -19 LegendNANA
12:00 -16.3 -22.8 57 8 3   100.22   -19 LegendNANA
13:00 -15.4 -22.1 57 8 2   100.23   -17 LegendNANA
14:00 -16.8 -22.8 60 3 1   100.27   -18 LegendNANA
15:00 -17.9 -22.6 67 11 6   100.31   -23 LegendNANA
16:00 -16.3 -21.0 67 11 4   100.34   -19 LegendNANA
17:00 -17.8 -22.5 67 11 9   100.38   -24 LegendNANA
18:00 -18.9 -23.8 65 9 6   100.42   -24 LegendNANA
19:00 -16.3 -21.8 63 14 6   100.46   -21 LegendNANA
20:00 -19.0 -23.2 69 13 7   100.50   -24 LegendNANA
21:00 -17.9 -22.0 70 11 7   100.53   -23 LegendNANA
22:00 -18.0 -21.0 77 11 7   100.58   -23 LegendNANA
23:00 -16.4 -21.3 66 19 3   100.61   -19 LegendNANA

Notes on Data Quality.

Legend

  • E = Estimated
  • M = Missing
  • NA = Not Available
  • ‡ = Partner data that is not subject to review by the National Climate Archives
Date modified: